Location: Bois de la Silve
(44.4667°N, 6.7833°E)
Time: 00:16:28
(UTC+00:00)

USA 238 DEB - Pass Details

Date: 30 October 2020
Orbit: 1001 x 1211 km, 63.5° (Epoch: 22 November)

Event Time Altitude Azimuth Distance (km) Brightness Sun altitude
Exits shadow 04:49:44 14° 308° (NW) 2,609 5.2 -14.4°
Maximum altitude 04:53:07 19° 342° (NNW) 2,310 5.2 -13.8°
Drops below altitude 10° 04:57:59 10° 26° (NNE) 2,979 6.3 -13.0°
Sets 05:01:42 0° 44° (NE) 3,981 7.2 -12.3°
